Total_Precipitation_Accumulation
0.44 0.48 0.61 0.44 0.35 0.37 0.38 0.45 0.45 0.38 0.37 0.40 0.38 0.36 0.35 0.37 0.40 0.44 0.45 0.45 0.50 0.59 0.63 0.63 0.61 0.60 0.61 0.63 0.65 0.63 0.61 0.60 0.65 0.72 0.78 0.76 0.77 1.05 1.39 1.50 1.46 0.99 0.98
0.24 0.37 0.54 0.40 0.31 0.30 0.32 0.39 0.35 0.32 0.33 0.35 0.33 0.33 0.33 0.35 0.37 0.38 0.41 0.45 0.49 0.52 0.50 0.52 0.53 0.50 0.45 0.44 0.45 0.45 0.51 0.60 0.77 0.87 0.83 0.69 0.80 1.02 1.29 1.34 1.41 0.89 0.85
0.13 0.25 0.35 0.34 0.28 0.26 0.27 0.32 0.33 0.30 0.28 0.32 0.33 0.36 0.39 0.40 0.37 0.37 0.41 0.43 0.43 0.42 0.40 0.43 0.44 0.41 0.34 0.32 0.34 0.39 0.50 0.70 0.90 1.03 1.13 0.66 0.56 1.01 1.26 1.25 1.05 0.74 0.74
0.10 0.17 0.19 0.21 0.22 0.21 0.22 0.26 0.32 0.31 0.29 0.31 0.35 0.42 0.47 0.48 0.44 0.41 0.40 0.38 0.37 0.34 0.33 0.36 0.38 0.32 0.28 0.27 0.31 0.39 0.51 0.76 0.96 1.24 1.27 0.69 0.42 0.76 1.04 0.91 0.78 0.69 0.72
0.12 0.17 0.20 0.19 0.16 0.18 0.18 0.19 0.27 0.35 0.37 0.35 0.38 0.44 0.48 0.54 0.49 0.44 0.42 0.41 0.38 0.35 0.33 0.31 0.30 0.26 0.23 0.27 0.33 0.42 0.52 0.70 0.96 1.11 0.93 0.84 0.78 0.76 0.78 0.77 0.78 0.78 0.75
0.17 0.16 0.18 0.20 0.19 0.18 0.17 0.18 0.21 0.30 0.35 0.36 0.37 0.44 0.46 0.53 0.55 0.46 0.41 0.41 0.40 0.37 0.32 0.25 0.23 0.25 0.26 0.31 0.38 0.44 0.56 0.74 0.82 0.66 0.61 0.64 0.74 0.85 0.75 0.89 0.99 0.98 0.87
0.22 0.20 0.18 0.21 0.20 0.20 0.20 0.22 0.23 0.25 0.29 0.30 0.30 0.35 0.40 0.44 0.49 0.45 0.43 0.41 0.36 0.32 0.28 0.24 0.24 0.28 0.34 0.36 0.41 0.48 0.61 0.80 0.69 0.50 0.60 0.70 0.66 0.68 0.78 1.01 1.22 1.19 1.02
0.42 0.30 0.27 0.28 0.24 0.22 0.21 0.24 0.25 0.25 0.24 0.27 0.25 0.28 0.34 0.38 0.39 0.42 0.40 0.38 0.31 0.27 0.25 0.25 0.28 0.32 0.36 0.39 0.41 0.48 0.63 0.71 0.57 0.53 0.52 0.53 0.51 0.61 0.82 1.05 1.22 1.30 1.15
0.66 0.49 0.42 0.35 0.28 0.28 0.29 0.29 0.26 0.25 0.26 0.27 0.25 0.28 0.38 0.40 0.43 0.45 0.41 0.37 0.36 0.33 0.29 0.26 0.28 0.31 0.34 0.35 0.37 0.44 0.58 0.72 0.64 0.67 0.50 0.52 0.67 0.78 0.99 1.17 1.21 1.20 1.12
0.93 0.72 0.57 0.54 0.50 0.42 0.35 0.34 0.35 0.33 0.34 0.34 0.32 0.37 0.43 0.43 0.45 0.50 0.46 0.45 0.46 0.47 0.41 0.39 0.34 0.31 0.34 0.35 0.39 0.49 0.60 0.56 0.53 0.58 0.55 0.51 0.74 0.90 1.08 1.16 1.19 1.13 1.11
1.40 1.01 0.80 0.72 0.68 0.64 0.54 0.48 0.52 0.52 0.52 0.49 0.54 0.58 0.63 0.67 0.65 0.77 0.71 0.75 0.68 0.71 0.69 0.67 0.58 0.52 0.48 0.45 0.57 0.71 0.61 0.60 0.79 0.83 0.68 0.70 0.84 1.03 1.19 1.20 1.21 1.18 1.17
1.58 1.16 1.02 0.83 0.73 0.74 0.84 0.98 0.93 0.82 0.83 0.86 0.98 1.04 1.21 1.26 1.20 0.97 1.02 1.16 1.22 1.34 1.27 1.21 1.15 0.90 0.76 0.71 1.14 1.36 0.73 0.63 0.77 0.90 0.80 0.77 0.98 1.29 1.45 1.34 1.24 1.19 1.11
1.51 1.25 1.15 1.12 1.06 0.95 1.08 1.22 1.23 1.16 1.20 1.20 1.26 1.36 1.45 1.31 1.23 1.15 1.22 1.43 1.53 1.65 1.60 1.76 1.80 1.50 1.45 1.47 1.65 1.58 1.01 0.95 0.91 0.82 0.91 1.02 1.14 1.43 1.70 1.53 1.32 1.22 1.11
1.97 1.67 1.51 1.53 1.38 1.28 1.25 1.36 1.38 1.37 1.29 1.30 1.46 1.42 1.55 1.64 1.57 1.55 1.65 1.66 1.74 1.91 2.24 2.08 2.23 2.15 2.00 1.87 1.82 1.68 1.40 1.38 1.31 1.24 1.49 1.32 1.23 1.52 1.84 1.71 1.49 1.37 1.27
2.52 2.42 2.12 1.87 1.67 1.61 1.71 1.67 1.59 1.58 1.54 1.62 1.76 1.74 1.77 1.94 1.94 1.98 1.93 1.93 1.78 1.97 2.32 2.41 2.31 2.53 2.58 2.36 2.11 1.90 1.82 1.67 1.53 1.54 1.62 1.54 1.43 1.51 1.78 1.88 1.74 1.62 1.50
2.71 2.79 2.58 2.35 2.17 2.12 2.22 2.26 2.10 1.91 2.00 2.06 2.04 1.93 1.97 2.18 2.38 2.42 2.27 2.20 2.05 2.07 2.28 2.42 2.45 2.95 2.84 2.68 2.22 1.99 1.93 1.89 1.74 1.70 1.74 1.83 1.55 1.41 1.54 1.83 1.99 1.94 1.83
3.09 3.01 2.95 2.86 2.74 2.75 2.69 2.62 2.43 2.34 2.18 2.16 2.21 2.28 2.24 2.26 2.48 2.54 2.52 2.39 2.31 2.27 2.42 2.47 2.67 2.92 2.64 2.53 2.26 2.13 2.02 1.90 1.72 1.70 1.87 2.06 1.85 1.57 1.42 1.54 1.84 2.01 2.04
3.45 3.42 3.38 3.22 3.20 3.17 3.11 2.97 2.80 2.66 2.37 2.15 2.15 2.30 2.34 2.36 2.49 2.58 2.41 2.31 2.51 2.59 2.67 2.82 2.92 2.95 2.80 2.71 2.52 2.20 2.02 1.96 1.57 1.51 1.57 1.65 1.80 1.59 1.66 1.77 1.91 1.98 2.15
3.94 4.06 4.02 3.95 3.71 3.47 3.38 3.34 3.35 3.26 2.92 2.55 2.42 2.40 2.41 2.29 2.33 2.49 2.36 2.44 2.61 2.70 2.73 2.52 2.90 2.90 2.91 2.82 2.36 2.10 1.82 1.70 1.58 1.32 1.29 1.23 1.37 1.42 1.51 1.61 1.76 1.76 2.06
4.21 4.55 4.42 4.29 4.24 4.16 4.04 3.77 3.73 3.49 3.18 2.97 2.81 2.77 2.60 2.45 2.44 2.60 2.45 2.52 2.65 2.76 2.76 2.78 2.97 2.95 2.79 2.77 2.22 1.94 1.68 1.37 1.37 1.31 1.11 1.13 1.18 1.09 1.16 1.37 1.68 1.45 1.80
4.42 4.74 4.81 4.94 4.83 4.55 4.13 3.69 3.48 3.37 3.32 3.12 2.86 2.63 2.55 2.50 2.60 2.81 2.64 2.78 2.76 2.62 2.62 2.77 2.93 2.77 2.55 2.67 2.57 1.98 1.48 1.20 1.19 1.13 1.15 1.20 1.11 1.09 1.24 1.53 1.67 1.56 1.46
4.02 4.43 4.56 4.32 4.19 4.05 3.77 3.62 3.58 3.73 3.42 3.09 2.88 2.63 2.46 2.44 2.53 2.46 2.53 2.43 2.48 2.60 2.60 2.63 2.80 2.65 2.27 2.41 2.49 2.32 1.71 1.42 1.13 0.92 1.08 1.11 1.09 1.21 1.25 1.39 1.67 1.84 1.70
3.02 3.25 3.42 3.58 3.47 3.36 3.31 3.27 3.30 3.45 3.17 2.84 2.63 2.50 2.30 2.20 2.16 2.16 2.15 2.25 2.52 2.55 2.52 2.59 2.60 2.46 2.14 2.12 2.25 2.39 1.88 1.47 1.19 0.86 0.84 0.98 1.18 1.36 1.33 1.47 1.57 1.75 1.82
2.66 2.82 2.88 2.92 3.01 3.00 3.03 2.89 2.71 2.60 2.45 2.31 2.30 2.25 2.24 2.14 2.03 1.98 1.98 2.05 2.15 2.14 2.20 2.04 2.13 2.27 2.29 2.08 2.12 2.08 1.91 1.71 1.57 1.18 0.95 0.93 1.10 1.21 1.30 1.28 1.29 1.42 1.70
2.05 2.28 2.44 2.53 2.59 2.67 2.67 2.54 2.51 2.30 2.25 2.25 2.20 2.16 2.09 2.02 1.97 1.92 1.85 1.82 1.76 1.77 1.89 1.88 1.96 1.99 1.99 1.95 1.96 2.00 1.95 1.87 1.75 1.62 1.34 1.20 1.13 0.98 1.04 1.14 1.20 1.27 1.54
1.77 1.95 2.09 2.21 2.23 2.33 2.37 2.34 2.28 2.20 2.17 2.09 2.01 1.97 1.94 1.93 1.81 1.74 1.74 1.75 1.69 1.67 1.73 1.78 1.85 1.79 1.81 1.86 1.85 1.87 1.92 1.85 1.84 1.85 1.56 1.43 1.33 1.07 1.05 1.02 1.05 1.11 1.35